weather.gov     
National Weather Service

Regional Weather Roundup
NWS Homepage
This page is being discontinued on March 12, 2014.
The same data is available at this site. Please update your bookmarks.
Thank you, and we apologize for the inconvenience.
Please send an email to SR-SRH.Webmaster@noaa.gov with any concerns.


Current Version
Previous Version:    01  02  03  04  05  06  07  08  09  10  11  12  13  14  15  16  17  18  19  20  21  22  23  24  25  26  27  28  29  30  
   31  32  33  34  35  36  37  38  39  40  41  42  43  44  45  46  47  48  49  50  51  52  53  
[Printable]
069
ASUS44 KMEG 220110
RWRMEG
MEMPHIS CWA HOURLY WEATHER ROUNDUP
NATIONAL WEATHER SERVICE MEMPHIS TN
800 PM CDT TUE OCT 21 2014

...WEST TENNESSEE...

CITY           SKY/WX    TMP DP  RH WIND       PRES   REMARKS
MEMPHIS INTL   CLEAR     63  47  55 CALM      30.08R
NWS MEMPHIS      N/A     58 N/A N/A MISG        N/A
JACKSON        CLEAR     55  50  83 CALM      30.08R
LEXINGTON      CLEAR     57  48  72 N3        30.07R
SAVANNAH       CLEAR     52  52 100 CALM      30.07R
DYERSBURG      CLEAR     61  39  44 N5        30.09R
UNION CITY     CLEAR     57  46  67 NE8       30.09R
PARIS          CLEAR     54  45  71 N5        30.10R
HUNTINGDON     CLEAR     56  44  64 N5        30.10R


...EASTERN ARKANSAS...

CITY           SKY/WX    TMP DP  RH WIND       PRES   REMARKS
JONESBORO      CLEAR     59  52  77 CALM      30.08R
WEST MEMPHIS   CLEAR     58  50  75 NW3       30.07R
BATESVILLE     CLEAR     61  46  59 CALM      30.09R
NEWPORT        CLEAR     61  53  74 E5        30.09R HAZE
WALNUT RIDGE   CLEAR     64  46  52 CALM      30.08R
BLYTHEVILLE    CLEAR     57  50  77 N3        30.09R
SEARCY         CLEAR     59  52  77 N3        30.09R
STUTTGART      CLEAR     63  52  67 E6        30.08R
PINE BLUFF     CLEAR     63  55  75 N3        30.06R
MONTICELLO     CLEAR     63  59  87 CALM      30.05R


...NORTH MISSISSIPPI...

CITY           SKY/WX    TMP DP  RH WIND       PRES   REMARKS
TUPELO         CLEAR     61  51  70 CALM      30.05R
OXFORD         CLEAR     55  52  88 CALM      30.09R
OLIVE BRANCH   CLEAR     61  50  67 CALM      30.08R
TUNICA         CLEAR     59  50  72 CALM      30.08R
CLARKSDALE     CLEAR     63  52  67 CALM      30.07R
CORINTH        CLEAR     55  50  82 NW3       30.06R
GRENADA          N/A    N/A N/A N/A MISG        N/A
GREENWOOD      CLEAR     60  58  92 N5        30.04R
COLUMBUS       CLEAR     58  55  90 CALM      30.04R
STARKVILLE     FAIR      61  55  82 CALM      30.04R
GOLDEN TRIANGL CLEAR     64  50  59 N6        30.01S


...SOUTHEAST MISSOURI...

CITY           SKY/WX    TMP DP  RH WIND       PRES   REMARKS
WEST PLAINS    CLEAR     55  46  71 CALM      30.12R
POPLAR BLUFF   CLEAR     59  47  64 NE5       30.09R
CAPE GIRARDEAU CLEAR     57  45  64 NE6       30.12R


...NORTHWEST ALABAMA...

CITY           SKY/WX    TMP DP  RH WIND       PRES   REMARKS
MUSCLE SHOALS  CLEAR     62  48  60 N3        30.06R


...MIDDLE TENNESSEE...

CITY           SKY/WX    TMP DP  RH WIND       PRES   REMARKS
NASHVILLE      CLEAR     59  45  59 N13       30.08R
CLARKSVILLE    CLEAR     58  44  60 NE9       30.10R
COLUMBIA       CLEAR     55  52  88 CALM      30.06R


...WESTERN KENTUCKY...

CITY           SKY/WX    TMP DP  RH WIND       PRES   REMARKS
PADUCAH        CLEAR     56  46  69 NE7       30.11R
FORT CAMPBELL  CLEAR     55  46  71 NE10      30.11R


...CENTRAL ARKANSAS...

CITY           SKY/WX    TMP DP  RH WIND       PRES   REMARKS
LITTLE ROCK    CLEAR     63  52  67 CALM      30.07R


SKY/WX REPORTED AS FAIR MEANS FEW OR NO CLOUDS BELOW
12 THOUSAND FEET.





U.S. Dept. of Commerce
NOAA National Weather Service
1325 East West Highway
Silver Spring, MD 20910
E-mail: w-nws.webmaster@noaa.gov
Page last modified: May 16, 2007
NATIONAL WEATHER SERVICE: for Safety, for Work, for Fun - FOR LIFE